Location: ???????
(55.4362°N, 38.1183°E)
Time: 18:11:51
(UTC+00:00)

Cosmos 1603 - Pass Details

Date: 17 June 2021
Orbit: 832 x 858 km, 71.0° (Epoch: 29 July)

Event Time Altitude Azimuth Distance (km) Brightness Sun altitude
Exits shadow 22:45:08 11° 180° (S) 2,432 5.5 -9.5°
Maximum altitude 22:50:20 43° 111° (ESE) 1,181 4.5 -9.3°
Drops below altitude 10° 22:55:37 10° 42° (NE) 2,468 7.4 -9.0°
Sets 22:58:10 0° 36° (NE) 3,403 8.6 -8.9°
